SCP
0 0 0 0 0 0 0 0 0 0 0 0 0 0 0 0 0 0 0 0 0 0 0 0 0 0 0 1 1 1 0 0 0 0 0 0 0 0 0 0 0 0 0 0
0 0 0 0 0 0 0 0 0 0 0 0 0 0 0 0 0 0 0 0 0 0 0 0 0 0 0 1 1 1 1 1 0 0 0 0 0 0 0 0 0 0 0 0
0 0 0 0 0 0 0 0 0 0 0 0 0 0 0 0 0 0 0 0 0 0 0 0 0 0 0 1 1 1 1 1 1 1 0 0 0 0 0 0 0 0 0 0
0 0 0 0 0 0 0 0 0 0 0 0 0 0 0 0 0 0 0 0 0 0 0 0 0 0 0 1 1 1 1 1 1 1 1 0 0 0 0 0 0 0 0 0
0 0 0 0 0 0 0 0 0 0 0 0 0 0 0 0 0 0 0 0 0 0 0 0 0 1 1 1 1 1 1 1 1 1 1 1 0 0 0 0 0 0 0 0
0 0 0 0 0 0 0 0 0 0 0 0 0 0 0 0 0 0 0 0 0 0 0 0 1 1 1 1 1 1 1 1 1 1 1 1 1 1 1 1 1 0 1 1
0 0 0 0 0 0 0 0 0 0 0 0 0 0 0 0 0 0 0 0 0 0 0 0 1 1 1 1 1 1 1 1 1 1 1 1 1 1 1 1 1 1 1 1
0 0 0 0 0 0 0 0 0 0 0 0 0 0 0 0 0 0 0 0 0 0 0 0 1 1 1 1 1 1 1 1 1 1 1 1 1 1 1 1 1 1 1 1
0 0 0 0 0 0 0 0 0 0 0 0 0 0 0 0 0 0 0 0 0 0 0 0 0 0 1 1 1 1 1 2 1 1 1 1 1 1 1 1 1 1 1 1
0 0 0 0 0 0 0 0 0 0 0 0 0 0 0 0 0 0 0 0 0 0 0 0 0 1 1 1 1 1 1 2 2 1 1 1 1 1 1 1 1 1 1 1
0 0 0 0 0 0 0 0 0 0 0 0 0 0 0 0 0 0 0 0 0 0 0 0 0 1 1 1 1 1 2 2 2 2 1 1 1 1 1 1 1 1 1 1
0 0 0 0 0 0 0 0 0 0 0 0 0 0 0 0 0 0 0 0 0 0 0 0 1 1 1 1 1 1 2 2 2 2 1 1 1 1 1 1 1 1 1 1
0 0 0 0 0 0 0 0 0 0 0 0 0 0 0 0 0 0 0 1 1 1 1 1 1 1 1 1 1 2 2 2 2 2 1 1 1 1 1 1 1 1 1 1
0 0 0 0 0 0 0 0 0 0 0 0 0 0 0 0 0 0 1 1 1 1 1 1 1 1 1 1 1 2 2 2 2 2 2 2 1 1 1 1 1 1 1 1
0 0 0 0 0 0 0 0 0 0 0 0 0 0 0 0 0 0 1 1 1 1 1 1 1 1 1 1 1 1 1 2 2 2 2 2 2 1 1 1 1 1 1 1
0 0 0 0 0 0 0 0 0 0 0 0 0 0 0 0 1 1 1 1 1 1 1 1 1 1 1 1 1 1 1 1 2 2 2 2 2 2 1 1 1 1 1 2
0 0 0 0 0 0 0 0 0 0 0 0 0 0 0 1 1 1 1 1 1 1 1 1 1 1 1 1 1 1 1 1 2 2 2 2 2 2 2 1 1 2 2 2
0 0 0 0 0 0 0 0 0 0 0 0 0 0 1 1 1 1 1 1 1 1 1 1 1 1 1 1 1 1 1 2 2 2 2 2 2 2 2 2 2 2 2 1
0 0 0 0 0 0 0 0 0 0 0 0 0 0 0 1 1 1 1 1 1 1 1 1 1 1 1 1 1 1 1 2 2 2 2 2 2 2 2 2 2 2 1 1
0 0 0 0 0 0 0 0 0 0 0 0 0 1 1 1 1 1 1 1 1 1 1 1 1 1 1 1 2 2 2 1 1 1 2 2 2 2 2 2 2 1 1 1
0 0 0 0 0 0 0 0 0 0 0 1 1 1 1 1 1 1 1 2 2 2 1 1 1 1 1 1 2 2 2 2 1 1 2 2 2 2 2 2 2 2 1 1
0 0 0 0 0 0 0 0 0 1 1 1 1 1 1 1 1 1 2 2 2 2 1 1 1 1 1 1 2 2 2 2 2 2 2 2 2 1 1 2 2 1 1 1
0 0 0 0 0 0 1 1 1 1 1 1 1 1 1 1 1 1 2 2 1 1 1 1 1 1 1 1 2 2 2 2 2 2 2 2 2 1 1 1 1 1 1 1
0 0 0 0 0 0 0 0 0 0 0 0 0 0 1 1 1 1 1 1 1 1 1 1 1 1 1 1 1 1 2 2 2 2 2 2 1 1 1 1 1 1 1 1
0 0 0 1 0 0 0 0 0 0 0 0 0 1 1 1 1 1 1 1 1 1 1 1 1 1 1 1 1 1 1 2 2 2 1 1 1 1 1 1 1 1 1 1
0 0 0 1 1 0 0 0 0 0 0 0 1 1 1 1 1 1 1 1 1 1 1 1 1 1 1 1 1 1 1 1 1 1 1 1 1 1 1 1 1 1 1 1
Wind_Speed
10 8 7 8 9 7 7 2 1 3 4 4 4 6 8 9 8 9 9 9 8 7 9 8 7 7 8 7 6 4 3 2 1 1 1 0 1 1 1 2 2 2 2 1
10 11 10 8 8 7 6 4 2 3 5 4 5 6 7 7 8 8 10 10 9 9 9 8 7 7 7 7 6 5 4 3 2 1 1 1 0 0 1 1 2 2 1 1
12 8 8 8 8 6 6 6 5 2 2 4 5 4 5 4 4 6 9 10 10 10 10 10 8 7 7 7 6 5 4 3 2 2 1 0 0 0 1 1 1 1 1 1
12 11 8 7 8 7 6 6 6 4 4 3 3 3 6 6 6 6 7 8 9 10 11 10 9 8 7 7 7 5 4 3 2 2 1 1 1 0 1 0 1 1 1 1
11 10 9 8 8 7 7 7 6 4 4 5 4 3 6 9 7 5 5 7 8 9 11 10 10 9 8 8 7 6 5 4 3 2 1 1 0 0 0 1 1 0 1 1
12 11 9 8 9 7 7 7 6 6 6 7 7 4 5 7 8 7 6 6 7 7 9 10 10 9 8 8 7 7 6 4 3 2 2 1 1 0 0 0 0 1 1 1
13 13 11 10 11 8 7 6 5 6 6 5 4 3 4 7 9 9 9 7 7 8 8 8 8 8 8 8 7 7 7 5 4 3 2 2 1 1 1 1 1 1 0 1
11 11 11 10 9 8 7 7 6 6 4 2 2 2 6 7 8 8 7 7 6 7 8 8 8 7 7 7 7 7 7 6 5 4 3 2 2 1 1 0 2 1 1 1
8 6 6 7 8 8 7 7 8 7 8 6 2 4 6 7 7 8 8 7 6 6 7 8 7 7 7 7 7 8 8 6 5 4 3 3 2 1 0 0 1 1 1 1
9 7 6 6 7 8 9 8 6 5 4 6 2 4 5 7 6 7 7 7 6 5 5 7 6 5 5 5 6 7 8 7 6 5 4 3 2 1 0 0 1 1 2 2
10 9 8 8 9 8 9 9 7 5 4 5 2 0 5 7 6 7 7 8 6 4 4 6 5 4 4 4 4 5 7 7 6 5 4 2 3 2 1 1 1 1 1 1
6 7 8 8 7 6 7 8 8 5 3 4 3 1 3 5 4 7 8 8 6 4 5 5 5 5 4 3 3 4 5 6 6 5 4 3 3 3 2 1 1 0 0 0
4 5 7 7 6 6 7 8 9 7 4 4 4 2 2 5 4 5 7 7 7 4 4 5 5 5 4 3 3 3 4 4 4 5 5 4 3 2 2 1 1 0 0 1
5 6 6 7 5 5 7 8 8 7 5 2 2 2 1 2 4 5 7 7 7 5 5 6 5 5 4 4 4 3 3 3 3 4 4 3 3 3 2 2 2 1 1 1
6 8 7 9 10 8 9 8 7 7 5 2 4 4 2 2 4 6 7 7 6 6 6 5 5 4 4 4 3 3 2 2 2 3 3 3 3 3 2 1 1 1 1 2
6 7 8 10 10 9 9 8 7 7 4 3 4 2 3 5 5 5 5 6 6 6 5 5 5 5 4 3 3 3 2 2 2 1 2 2 2 2 2 2 1 1 1 1
7 6 8 9 8 7 8 8 7 5 3 2 2 2 3 7 7 5 5 6 6 6 5 4 4 4 3 3 3 2 2 2 2 1 1 1 2 2 2 2 1 1 1 1
5 5 6 8 7 8 5 5 5 4 2 2 6 6 6 6 6 7 6 7 6 6 5 5 4 4 3 3 3 2 2 2 1 1 1 1 1 1 1 1 1 1 0 0
4 5 7 7 7 7 5 4 4 3 1 3 4 5 4 7 6 7 8 8 7 6 5 4 4 4 4 4 3 2 2 2 1 1 1 1 1 1 1 1 1 1 1 1
7 5 7 8 8 7 3 3 3 2 3 4 4 3 4 3 2 5 7 7 6 6 4 4 4 4 4 4 3 2 2 1 0 0 0 1 1 1 1 1 1 1 1 1
9 9 10 9 8 3 2 2 2 3 2 4 5 5 6 6 5 6 6 6 6 5 5 5 5 4 3 3 2 2 2 2 1 1 1 1 1 1 1 1 1 1 1 1
8 7 7 7 7 3 5 4 3 4 4 4 5 6 7 7 6 6 6 6 5 4 4 4 3 3 3 3 2 2 2 2 2 1 1 1 0 1 1 1 1 1 2 2
6 4 2 1 1 4 7 7 5 5 5 5 6 6 6 5 5 6 6 5 4 4 4 3 3 3 3 3 2 2 2 2 1 0 0 0 0 1 1 1 2 2 2 3
3 2 2 2 4 5 5 6 6 5 5 5 5 5 4 5 5 5 4 4 4 4 3 3 3 3 2 3 3 2 2 2 1 0 0 0 0 1 1 1 2 2 2 2
2 2 2 2 3 4 5 4 3 4 4 4 4 4 5 4 4 4 3 4 3 3 3 3 3 2 3 3 3 2 2 2 1 1 1 2 2 2 2 1 1 1 1 1
2 2 1 1 2 1 3 3 4 4 4 5 5 5 5 4 4 4 3 3 3 3 3 3 3 3 3 3 3 2 2 1 1 2 2 2 2 2 2 1 1 0 2 2
Wind_Direction
242 241 251 254 252 265 286 260 184 177 165 145 152 154 151 153 167 165 164 156 152 148 143 137 138 135 131 127 124 121 127 132 131 101 98 97 110 107 110 115 107 93 83 67
243 244 247 263 267 271 290 294 262 188 158 163 155 156 148 167 182 167 162 159 158 155 145 144 144 140 137 136 136 146 154 147 152 147 160 179 228 188 115 88 103 105 92 74
244 248 244 253 266 268 272 284 281 248 179 198 180 146 137 174 184 171 165 165 162 159 154 153 153 155 150 145 148 147 145 144 160 167 170 132 150 58 69 81 94 107 113 104
256 253 251 255 260 267 272 271 275 276 276 252 199 173 172 179 195 180 172 170 165 160 155 156 157 159 155 150 146 138 139 142 153 159 173 205 169 135 119 116 103 119 113 110
253 256 260 255 259 266 275 284 293 286 269 275 241 209 167 166 175 176 181 167 159 159 157 159 159 159 158 153 151 150 145 149 153 165 175 223 251 131 95 60 85 188 154 145
259 262 259 263 265 263 271 282 284 273 260 255 237 227 152 160 156 164 170 155 149 149 149 151 153 153 156 157 156 153 146 149 154 170 176 189 223 318 36 337 304 262 173 148
245 247 243 244 258 254 258 268 270 264 240 238 205 202 136 143 145 154 158 149 149 148 142 142 147 156 159 161 159 151 150 160 173 179 181 176 216 216 206 276 247 269 304 100
234 235 231 236 246 257 251 256 258 277 288 296 226 155 121 122 126 129 127 133 147 139 139 141 148 154 161 164 160 153 155 166 175 180 185 172 199 235 180 331 315 336 354 53
262 243 222 232 241 253 262 260 258 267 277 270 194 106 116 137 135 131 128 132 129 124 137 142 147 157 163 165 167 164 158 165 175 178 184 179 192 226 7 240 288 7 19 47
256 265 255 228 242 243 252 265 269 266 278 284 198 166 165 155 144 130 121 116 111 120 134 137 143 148 155 159 166 167 162 163 167 175 187 176 174 184 208 60 62 33 24 31
242 255 248 235 231 243 236 251 262 278 289 284 286 12 127 149 149 134 120 112 118 125 125 131 133 135 137 143 150 159 163 159 167 177 172 164 163 166 155 133 70 61 38 13
230 254 257 242 245 254 259 263 266 265 275 294 284 243 122 128 146 130 118 113 104 96 107 109 127 129 132 136 138 144 158 160 165 162 160 171 155 152 154 164 149 144 134 302
253 259 264 246 241 238 246 252 258 266 265 254 262 205 99 85 78 105 112 111 107 95 92 100 101 107 108 108 105 111 118 136 149 156 163 162 152 150 155 162 162 187 289 295
263 256 259 266 268 258 251 257 267 268 269 251 229 233 265 118 131 114 106 106 105 101 87 82 78 76 76 80 88 96 104 119 138 146 156 157 159 157 166 176 170 184 219 252
251 251 248 255 262 257 262 258 263 264 269 227 209 214 245 157 108 98 102 103 99 86 73 73 77 74 70 67 79 97 97 100 122 138 159 159 160 159 170 192 194 194 222 241
231 269 269 253 251 258 265 267 258 262 259 196 195 208 186 133 106 89 91 93 93 86 78 68 69 72 70 68 72 87 95 111 117 147 160 150 164 158 166 190 197 199 221 258
226 237 263 269 260 257 266 270 268 268 295 262 173 144 104 92 93 95 95 91 85 89 91 79 70 67 68 76 75 76 86 96 120 151 147 146 158 167 184 213 200 195 202 225
230 246 255 262 266 259 262 291 296 289 316 34 79 77 81 85 85 88 91 87 80 72 71 70 69 74 60 56 52 50 65 88 96 111 121 145 150 165 172 195 200 166 148 160
248 249 260 265 260 256 265 265 262 253 18 49 84 92 95 93 83 78 67 70 70 69 65 69 58 54 50 42 37 37 60 78 61 26 58 111 154 174 173 183 195 163 187 230
225 238 252 261 267 259 244 236 266 227 153 52 59 66 69 72 95 82 69 69 68 63 59 61 61 51 44 34 25 27 28 56 63 306 18 51 100 153 161 164 185 196 216 237
215 222 239 257 262 256 339 350 295 267 70 38 55 54 54 52 55 80 80 70 66 64 58 59 59 54 44 26 18 22 12 358 351 19 52 63 53 137 152 160 164 189 214 244
218 227 234 252 264 282 13 360 31 70 66 57 58 62 64 66 68 71 73 71 63 55 53 49 51 52 41 27 15 10 12 349 349 9 54 93 120 259 218 167 181 198 214 235
216 226 241 276 87 70 53 68 76 74 65 59 60 63 65 68 68 64 65 64 60 50 45 39 37 42 31 14 5 352 350 333 327 335 357 63 312 299 286 227 210 219 226 244
180 206 209 139 124 100 83 78 71 60 58 51 54 61 58 64 67 64 60 58 52 44 36 29 20 16 13 359 348 343 340 343 2 17 315 278 247 257 263 251 234 234 243 248
333 251 221 175 132 114 88 78 82 79 69 58 52 56 61 66 65 63 61 55 45 35 24 19 6 355 353 351 347 345 344 348 338 309 265 253 247 244 253 261 305 280 306 253
289 294 251 162 112 127 105 95 86 78 65 54 45 44 51 54 57 57 57 49 38 22 17 9 359 353 348 348 341 337 332 325 310 289 270 265 258 243 226 213 255 63 209 214